Location: Keppel Henge
(44.7900°N, 80.9447°W)
Time: 14:07:57
(UTC-05:00)

Vanguard 1 Rocket - Pass Details

Date: 28 October 2017
Orbit: 655 x 4222 km, 34.3° (Epoch: 16 November)

Event Time Altitude Azimuth Distance (km) Brightness Sun altitude
Exits shadow 06:58:42 - 244° (WSW) 6,441 11.2 -10.9°
Rises 06:58:49 0° 244° (WSW) 6,406 11.2 -10.8°
Reaches altitude 10° 07:04:09 10° 238° (WSW) 4,771 10.6 -9.9°
Maximum altitude 07:14:33 37° 177° (S) 2,017 9.3 -8.1°
Drops below altitude 10° 07:20:33 10° 111° (ESE) 2,737 11.6 -7.0°
Sets 07:22:46 0° 102° (ESE) 3,448 13.2 -6.7°
